Location: Janeiro
(34.9957°N, 76.7652°W)
Time: 04:39:59
(UTC+00:00)

USA 116 - Pass Details

Date: 14 December 2019
Orbit: 405 x 834 km, 97.9° (Epoch: 18 November)

Event Time Altitude Azimuth Distance (km) Brightness Sun altitude
Exits shadow 23:07:48 - 20° (NNE) 2,663 6.8 -14.2°
Reaches altitude 10° 23:08:41 10° 22° (NNE) 2,324 6.5 -14.4°
Maximum altitude 23:13:42 52° 99° (E) 903 4.4 -15.4°
Drops below altitude 10° 23:18:16 10° 176° (S) 2,113 6.8 -16.3°
Sets 23:20:26 0° 181° (S) 2,963 7.7 -16.7°
